W6ZZY Weather Reports


time (UTC)temp
C
wind
direction
speed
KPH
gust
KPH
rain 1hr
cm
rain 24hr
cm
rain mn
cm
humidity
%
barometer
mb
20260507074022 11 164 3.2 3.2 0.00 0.00 0.00 98 1022.0
20260507073016 11 247 3.2 4.8 0.00 0.00 0.00 98 1022.0
20260507072032 11 217 3.2 3.2 0.00 0.00 0.00 98 1021.9
20260507071026 11 259 3.2 4.8 0.00 0.00 0.00 98 1022.0
20260507070021 11 232 3.2 4.8 0.00 0.00 0.00 97 1021.9
20260507065034 11 186 3.2 9.7 0.00 0.00 0.00 97 1021.9
20260507064029 11 199 4.8 11.3 0.00 0.00 0.00 97 1022.0
20260507063025 11 212 3.2 4.8 0.00 0.00 0.00 97 1021.9
20260507062019 11 204 3.2 4.8 0.00 0.00 0.00 97 1021.9
20260507061034 11 193 3.2 6.4 0.00 0.00 0.00 97 1021.9
20260507060029 11 152 3.2 4.8 0.00 0.00 0.00 97 1021.9
20260507055023 11 177 3.2 6.4 0.00 0.00 0.00 97 1021.8
20260507054018 12 184 3.2 11.3 0.00 0.00 0.00 96 1021.9
20260507053032 12 194 4.8 9.7 0.00 0.00 0.00 96 1021.8
20260507052030 12 206 3.2 6.4 0.00 0.00 0.00 96 1021.8
20260507051023 12 215 3.2 11.3 0.00 0.00 0.00 95 1021.8
20260507050057 12 185 3.2 6.4 0.00 0.00 0.00 94 1021.8
20260507045032 12 200 1.6 6.4 0.00 0.00 0.00 94 1021.8
20260507044026 12 197 3.2 4.8 0.00 0.00 0.00 93 1021.6
20260507043101 13 183 1.6 4.8 0.00 0.00 0.00 93 1021.6
20260507042016 13 146 0.0 1.6 0.00 0.00 0.00 91 1021.6
20260507041030 13 204 0.0 1.6 0.00 0.00 0.00 90 1021.5
20260507040025 13 200 0.0 1.6 0.00 0.00 0.00 90 1021.5
20260507035020 13 193 0.0 1.6 0.00 0.00 0.00 89 1021.4
20260507034015 13 135 0.0 1.6 0.00 0.00 0.00 89 1021.4
20260507033111 13 0.0 0.0 0.00 0.00 0.00 88 1021.2
20260507032106 13 0.0 0.0 0.00 0.00 0.00 88 1021.0
20260507031020 14 150 0.0 1.6 0.00 0.00 0.00 88 1021.1
20260507030034 14 71 0.0 3.2 0.00 0.00 0.00 87 1021.1
20260507025028 15 181 0.0 4.8 0.00 0.00 0.00 87 1021.2
20260507024103 15 188 1.6 4.8 0.00 0.00 0.00 86 1021.1
20260507023017 15 218 3.2 6.4 0.00 0.00 0.00 85 1021.1
20260507022032 16 201 3.2 6.4 0.00 0.00 0.00 84 1020.9
20260507020022 17 195 3.2 4.8 0.00 0.00 0.00 78 1020.9
20260507015018 17 198 3.2 6.4 0.00 0.00 0.00 78 1020.9
20260507014033 18 198 3.2 6.4 0.00 0.00 0.00 77 1020.9
20260507013027 18 187 3.2 9.7 0.00 0.00 0.00 76 1021.0
20260507012022 18 186 3.2 9.7 0.00 0.00 0.00 75 1020.9
20260507011018 19 204 3.2 12.9 0.00 0.00 0.00 73 1021.0
20260507010033 20 194 3.2 6.4 0.00 0.00 0.00 72 1021.1
20260507005028 20 199 3.2 9.7 0.00 0.00 0.00 71 1021.0
20260507004022 20 182 3.2 9.7 0.00 0.00 0.00 71 1021.0
20260507003018 20 195 4.8 6.4 0.00 0.00 0.00 69 1021.0
20260507002032 20 183 3.2 6.4 0.00 0.00 0.00 70 1021.0
20260507001026 20 196 3.2 9.7 0.00 0.00 0.00 69 1021.1
20260507000022 20 203 3.2 6.4 0.00 0.00 0.00 68 1021.2
20260506235016 20 206 4.8 12.9 0.00 0.00 0.00 68 1021.2
20260506234031 21 203 4.8 12.9 0.00 0.00 0.00 68 1021.3
20260506233027 21 188 4.8 11.3 0.00 0.00 0.00 67 1021.3
20260506232100 21 192 3.2 6.4 0.00 0.00 0.00 66 1021.3
20260506231056 21 192 3.2 9.7 0.00 0.00 0.00 66 1021.3
20260506230032 21 180 3.2 4.8 0.00 0.00 0.00 67 1021.4
20260506225535 21 143 3.2 9.7 0.00 0.00 0.00 67 1021.5
20260506225035 21 188 4.8 11.3 0.00 0.00 0.00 66 1021.5
20260506224018 21 197 3.2 4.8 0.00 0.00 0.00 66 1021.6
20260506223035 21 191 4.8 9.7 0.00 0.00 0.00 65 1021.7
20260506222527 22 194 4.8 11.3 0.00 0.00 0.00 65 1021.8
20260506221611 22 281 4.8 4.8 0.00 0.00 0.00 65 1021.8
20260506220535 22 204 4.8 6.4 0.00 0.00 0.00 64 1022.1
20260506220033 22 140 3.2 4.8 0.00 0.00 0.00 65 1022.1
20260506215033 22 205 3.2 9.7 0.00 0.00 0.00 66 1022.3
20260506214027 21 166 4.8 9.7 0.00 0.00 0.00 66 1022.4
20260506213022 21 182 3.2 9.7 0.00 0.00 0.00 66 1022.4
20260506212017 22 162 4.8 11.3 0.00 0.00 0.00 65 1022.5
20260506211032 22 202 3.2 9.7 0.00 0.00 0.00 65 1022.4
20260506210028 22 197 4.8 9.7 0.00 0.00 0.00 66 1022.4
20260506205023 21 108 3.2 4.8 0.00 0.00 0.00 66 1022.5
20260506204018 22 218 4.8 11.3 0.00 0.00 0.00 64 1022.5
20260506203033 22 151 3.2 9.7 0.00 0.00 0.00 66 1022.6
20260506202110 22 150 3.2 6.4 0.00 0.00 0.00 66 1022.7
20260506201026 21 219 4.8 9.7 0.00 0.00 0.00 67 1022.9
20260506200041 20 175 3.2 6.4 0.00 0.00 0.00 69 1022.8
20260506195017 20 220 3.2 9.7 0.00 0.00 0.00 67 1022.9
20260506194054 21 162 3.2 6.4 0.00 0.00 0.00 67 1023.0
20260506193028 20 193 3.2 9.7 0.00 0.00 0.00 70 1023.0
20260506192025 20 165 3.2 9.7 0.00 0.00 0.00 67 1023.2
20260506191020 21 173 3.2 6.4 0.00 0.00 0.00 68 1023.3
20260506190035 20 218 3.2 6.4 0.00 0.00 0.00 70 1023.4
20260506185030 20 189 3.2 9.7 0.00 0.00 0.00 72 1023.3
20260506184024 18 222 3.2 6.4 0.00 0.00 0.00 72 1023.4
20260506183018 18 166 1.6 4.8 0.00 0.00 0.00 73 1023.4
20260506182034 19 164 3.2 9.7 0.00 0.00 0.00 72 1023.4
20260506181029 18 183 1.6 4.8 0.00 0.00 0.00 75 1023.3
20260506180025 18 166 3.2 6.4 0.00 0.00 0.00 74 1023.3
20260506175040 18 148 3.2 6.4 0.00 0.00 0.00 76 1023.4
20260506174035 17 200 0.0 4.8 0.00 0.00 0.00 76 1023.3
20260506173029 17 167 1.6 6.4 0.00 0.00 0.00 77 1023.4
20260506172024 17 154 3.2 9.7 0.00 0.00 0.00 79 1023.4
20260506171019 16 202 3.2 9.7 0.00 0.00 0.00 81 1023.5
20260506170033 16 215 1.6 4.8 0.00 0.00 0.00 81 1023.5
20260506165027 16 172 1.6 4.8 0.00 0.00 0.00 81 1023.3
20260506164042 16 212 3.2 4.8 0.00 0.00 0.00 82 1023.4
20260506163017 16 178 0.0 1.6 0.00 0.00 0.00 82 1023.4
20260506162053 16 174 3.2 6.4 0.00 0.00 0.00 82 1023.4
20260506161046 15 215 1.6 6.4 0.00 0.00 0.00 84 1023.3
20260506155035 14 209 1.6 4.8 0.00 0.00 0.00 87 1023.5
20260506154030 13 187 3.2 4.8 0.00 0.00 0.00 89 1023.3
20260506153024 13 172 0.0 1.6 0.00 0.00 0.00 92 1023.3
20260506152020 12 198 1.6 4.8 0.00 0.00 0.00 93 1023.2
20260506151035 12 199 0.0 1.6 0.00 0.00 0.00 92 1023.3
20260506150030 12 191 0.0 1.6 0.00 0.00 0.00 93 1023.3
20260506145025 12 197 0.0 3.2 0.00 0.00 0.00 94 1023.2
20260506144043 12 204 1.6 3.2 0.00 0.00 0.00 94 1023.1
20260506143035 11 212 0.0 1.6 0.00 0.03 0.00 94 1023.2
20260506142029 11 0.0 0.0 0.00 0.03 0.00 94 1023.0
20260506141023 11 0.0 0.0 0.00 0.03 0.00 94 1022.9
20260506140038 11 0.0 0.0 0.00 0.03 0.00 94 1022.7
20260506135052 11 0.0 0.0 0.00 0.03 0.00 94 1022.6
20260506134027 11 0.0 0.0 0.00 0.03 0.00 94 1022.7
20260506133022 11 0.0 0.0 0.00 0.03 0.00 93 1022.6
20260506132017 11 0.0 0.0 0.00 0.03 0.00 93 1022.5
20260506131032 11 0.0 0.0 0.00 0.03 0.00 93 1022.5
20260506130027 11 0.0 0.0 0.00 0.03 0.00 92 1022.3
20260506125022 11 0.0 0.0 0.00 0.03 0.00 92 1022.4
20260506124017 11 0.0 0.0 0.00 0.03 0.00 92 1022.3
20260506123052 11 0.0 0.0 0.00 0.03 0.00 92 1022.3
20260506122026 11 0.0 0.0 0.00 0.03 0.00 92 1022.3
20260506121023 11 218 0.0 1.6 0.00 0.03 0.00 92 1022.2
20260506120015 11 0.0 0.0 0.00 0.03 0.00 92 1022.1
20260506115031 11 0.0 0.0 0.00 0.03 0.00 92 1022.1
20260506114025 11 239 0.0 1.6 0.00 0.03 0.00 92 1022.0
20260506113020 11 0.0 0.0 0.00 0.03 0.00 92 1022.0
20260506112055 11 210 0.0 1.6 0.00 0.03 0.00 92 1021.9
20260506111029 11 220 0.0 1.6 0.00 0.03 0.00 92 1021.8
20260506110024 11 0.0 0.0 0.00 0.03 0.00 92 1021.6
20260506105019 11 204 0.0 1.6 0.00 0.03 0.00 92 1021.8
20260506104033 11 0.0 0.0 0.00 0.03 0.00 92 1021.6
20260506103029 11 213 0.0 1.6 0.00 0.03 0.00 92 1021.7
20260506102044 11 0.0 0.0 0.00 0.03 0.00 92 1021.6
20260506101017 11 0.0 0.0 0.00 0.03 0.00 92 1021.6
20260506100032 11 182 0.0 1.6 0.00 0.03 0.00 92 1021.5
20260506095028 11 0.0 0.0 0.00 0.03 0.00 92 1021.7
20260506094022 11 182 0.0 1.6 0.00 0.03 0.00 92 1021.7
20260506093017 11 217 0.0 1.6 0.00 0.03 0.00 92 1021.7
20260506092032 11 253 0.0 1.6 0.00 0.03 0.00 92 1021.6
20260506091026 11 185 0.0 1.6 0.00 0.05 0.00 92 1021.7
20260506085016 11 0.0 0.0 0.00 0.08 0.00 92 1021.6
20260506084030 11 196 0.0 4.8 0.00 0.08 0.00 92 1021.5
20260506083025 11 181 0.0 3.2 0.00 0.08 0.00 92 1021.7
20260506082020 11 242 0.0 1.6 0.00 0.08 0.00 91 1021.7
20260506081055 11 176 0.0 1.6 0.00 0.08 0.00 91 1021.7